Location: Newark
(41.6500°N, 71.4833°W)
Time: 04:26:11
(UTC+00:00)

A-11 Canister half - Pass Details

Date: 28 January 2020
Orbit: 1517 x 1683 km, 47.2° (Epoch: 19 February)

Event Time Altitude Azimuth Distance (km) Brightness Sun altitude
Rises 07:39:00 0° 288° (WNW) 4,692 - -48.7°
Reaches altitude 10° 07:42:06 10° 291° (WNW) 3,697 - -48.2°
Maximum altitude 07:51:23 70° 15° (NNE) 1,597 - -46.6°
Exits shadow 07:54:35 45° 83° (E) 1,973 9.7 -46.0°
Drops below altitude 10° 08:00:39 10° 99° (E) 3,692 11.5 -44.9°
Sets 08:03:44 0° 102° (ESE) 4,686 12.2 -44.4°
